Regional Weather Roundup
Issued by NWS

Home | Current Version | Previous Version | Text Only | Print | Product List | Glossary Off
Versions: 1 2 3 4 5 6 7 8 9 10 11 12 13 14 15 16 17 18 19 20 21 22 23 24 25 26 27 28 29 30 31 32 33 34 35 36 37 38 39 40 41 42 43 44 45 46 47 48 49 50

000
ASUS43 KIND 260409
RWRIN

WEATHER ROUNDUP FOR INDIANA
NATIONAL WEATHER SERVICE INDIANAPOLIS IN
1100 PM EST TUE NOV 25 2014

NOTE: "FAIR" INDICATES FEW OR NO CLOUDS BELOW 12,000 FEET WITH NO
SIGNIFICANT WEATHER AND/OR OBSTRUCTIONS TO VISIBILITY.

* - STATION DOES NOT REPORT WEATHER SUCH AS PRECIPITATION OR FOG.

+ - STATION NOT QUALITY CONTROLLED BY THE NATIONAL WEATHER SERVICE.
    USE DATA WITH CAUTION...ESPECIALLY DEWPOINT AND RELATIVE
    HUMIDITY OBSERVATIONS.

INZ001>003-010>013-019-020-260500-
NORTHWEST INDIANA

CITY           SKY/WX    TMP DP  RH WIND       PRES   REMARKS
GARY /AIRPORT/ CLOUDY    25  19  78 S5        30.22R WCI  19
KNOX *+        CLOUDY    24  19  80 S5        30.21S WCI  18
LA PORTE +     CLOUDY    26  20  80 S8        30.21S WCI  17
MICHIGAN CITY+ CLOUDY    25  18  74 S3        30.22S
MONTICELLO +   CLOUDY    25  19  78 CALM      30.21S
RENSSELAER +   CLOUDY    27  23  86 S7        30.21F WCI  19
VALPARAISO     CLOUDY    23  18  81 S6        30.21S WCI  16

$$

LMZ046-743>745-260500-
SOUTHERN LAKE MICHIGAN

STATION/POSITION TIME  TEMP WIND        PRES
                       AIR  DIR/SP/G
                 (UTC) (F)  (DEG/KT/KT) (MB)
MICHIGAN CITY    0400   24  170/ 10/ 11   N/A

$$

INZ004-005-014>016-021>024-260500-
NORTH CENTRAL INDIANA

CITY           SKY/WX    TMP DP  RH WIND       PRES   REMARKS
GOSHEN         CLOUDY    26  18  71 S7        30.20F WCI  18
LOGANSPORT +   CLOUDY    27  19  74 SW5       30.22S WCI  21
PERU/GRISSOM   CLOUDY    25  23  91 E2        30.19F
ROCHESTER +    CLOUDY    28  23  80 SW3       30.21F
SOUTH BEND     CLOUDY    26  19  74 SW7       30.21S WCI  18
WARSAW +       CLOUDY    27  19  74 CALM      30.20F

$$

INZ006>009-017-018-025>027-260500-
NORTHEAST INDIANA

CITY           SKY/WX    TMP DP  RH WIND       PRES   REMARKS
ANGOLA *+      CLOUDY    27  19  74 CALM      30.19S
AUBURN +       CLOUDY    27  19  74 CALM      30.21S
FORT WAYNE     CLOUDY    26  20  77 NW3       30.21F
HUNTINGTON +   CLOUDY    25  20  81 CALM      30.20F

$$

INZ028-029-035-036-043>045-051>053-260500-
WEST CENTRAL INDIANA

CITY           SKY/WX    TMP DP  RH WIND       PRES   REMARKS
GREENCASTLE +  CLOUDY    27  21  80 CALM      30.20F
LAFAYETTE      CLOUDY    25  20  81 SW5       30.22S WCI  19
TERRE HAUTE    CLOUDY    29  22  75 N3        30.22S

$$

INZ030>032-037>040-046>048-054>057-064-065-260500-
CENTRAL INDIANA

CITY           SKY/WX    TMP DP  RH WIND       PRES   REMARKS
CP ATTERBURY + CLOUDY    28  27  93 N3        30.20F
FRANKFORT +    CLOUDY    26  22  85 CALM      30.21S
GREENWOOD *+   CLOUDY    28  21  74 CALM      30.19F
INDIANAPOLIS   CLOUDY    27  21  78 NW6       30.19F WCI  20
-EAGLE CREEK   CLOUDY    26  20  77 NW6       30.19F WCI  19
KOKOMO *+      CLOUDY    27  19  74 CALM      30.20F
MARION +         N/A     26  21  83 W3        30.20F
MT COMFORT *+  CLOUDY    28  18  64 N3        30.19F
SHELBYVILLE    CLOUDY    30  23  75 N5        30.19S WCI  25
ZIONSVILLE +   CLOUDY    27  21  79 CALM      30.20S

$$

INZ033-034-041-042-049-050-058-059-260500-
EAST CENTRAL INDIANA

CITY           SKY/WX    TMP DP  RH WIND       PRES   REMARKS
MUNCIE         CLOUDY    28  23  81 NW3       30.19F

$$

INZ060-061-067>069-081>083-085>088-260500-
SOUTHWEST INDIANA

CITY           SKY/WX    TMP DP  RH WIND       PRES   REMARKS
EVANSVILLE     CLEAR     30  25  81 N3        30.21F
HUNTINGBURG *+ PTCLDY    28  23  80 NE5       30.21S WCI  23
WASHINGTON +   CLOUDY    30  26  84 N3        30.21S

$$

INZ062-063-066-070>080-084-089>092-260500-
SOUTH CENTRAL AND SOUTHEAST INDIANA

CITY           SKY/WX    TMP DP  RH WIND       PRES   REMARKS
BLOOMINGTON    CLOUDY    29  23  78 CALM      30.18F

$$




USA.gov is the U.S. government's official web portal to all federal, state and local government web resources and services.